Columbus, OH

3:50 PM EST on February 13, 2016 (GMT -0500)
Port Columbus International

Weather History for KCMH - July, 2013

Change the Weather History Date:

Monday, July 29, 2013

  Actual Average Record
Temperature  
Mean Temperature 67 °F 75 °F  
Max Temperature 76 °F 85 °F 98 °F (1940)
Min Temperature 57 °F 65 °F 51 °F (1968)
Degree Days  
Heating Degree Days 0 0  
Month to date heating degree days 0 0  
Since 1 June heating degree days 6 19  
Since 1 July heating degree days 0 0  
Cooling Degree Days 2 10  
Month to date cooling degree days 310 290  
Year to date cooling degree days 709 588  
Since 1 June cooling degree days 548 506  
Growing Degree Days 16 (Base 50)    
Moisture  
Dew Point 53 °F    
Average Humidity 65    
Maximum Humidity 86    
Minimum Humidity 43    
Precipitation  
Precipitation 0.00 in 0.13 in 2.20 in (1878)
Month to date precipitation 6.54 4.52  
Year to date precipitation 23.47 24.10  
Snow  
Snow 0.00 in 0.00 in 0.00 in ()
Month to date snowfall 0.0 0.0  
Since 1 June snowfall 0.0 0.0  
Since 1 July snowfall 0.0 0.0  
Snow Depth 0.00 in    
Sea Level Pressure  
Sea Level Pressure 30.12 in    
Wind  
Wind Speed 7 mph (West)    
Max Wind Speed 17 mph    
Max Gust Speed 26 mph    
Visibility 10 miles    
Events      
T = Trace of Precipitation, MM = Missing Value Source: NWS Daily Summary

Daily Weather History Graph

Daily Weather History Graph

Search for Another Location

Airport or City:

Trip Planner

Search our weather history database for the weather conditions in past years. The results will help you decide how hot, cold, wet, or windy it might be!

Date:

Astronomy

Jul. 29, 2013 Rise Set
Actual Time 6:27 AM EDT 8:48 PM EDT
Civil Twilight 5:56 AM EDT 9:18 PM EDT
Nautical Twilight 5:19 AM EDT 9:56 PM EDT
Astronomical Twilight 4:37 AM EDT 10:37 PM EDT
Moon 12:10 AM EDT (7/29) 2:08 PM EDT (7/29)
Length of Visible Light 15h 21m
Length of Day
14h 20m
Waning Gibbous, 51% of the Moon is Illuminated
Jul 29
Waning Gibbous
Jul 29
Last Quarter
Aug 6
New
Aug 14
First Quarter
Aug 20
Full

Hourly Weather History & Observations

Time (EDT) Temp. Dew Point Humidity Pressure Visibility Wind Dir Wind Speed Gust Speed Precip Events Conditions
12:51 AM 62.1 °F 53.1 °F 72% 30.05 in 10.0 mi South 4.6 mph - N/A   Mostly Cloudy
1:51 AM 60.1 °F 54.0 °F 80% 30.05 in 10.0 mi SSE 4.6 mph - N/A   Scattered Clouds
2:51 AM 61.0 °F 54.0 °F 78% 30.05 in 10.0 mi Calm Calm - N/A   Mostly Cloudy
3:51 AM 64.0 °F 51.1 °F 63% 30.04 in 10.0 mi West 10.4 mph - N/A   Scattered Clouds
4:51 AM 59.0 °F 53.1 °F 81% 30.06 in 10.0 mi SSE 5.8 mph - N/A   Scattered Clouds
5:51 AM 57.0 °F 52.0 °F 83% 30.08 in 10.0 mi South 4.6 mph - N/A   Overcast
6:51 AM 57.9 °F 53.1 °F 84% 30.10 in 10.0 mi South 3.5 mph - N/A   Mostly Cloudy
7:51 AM 60.1 °F 53.1 °F 78% 30.10 in 10.0 mi SSW 3.5 mph - N/A   Scattered Clouds
8:51 AM 64.0 °F 54.0 °F 70% 30.11 in 10.0 mi West 5.8 mph - N/A   Scattered Clouds
9:51 AM 66.9 °F 52.0 °F 59% 30.12 in 10.0 mi West 3.5 mph - N/A   Scattered Clouds
10:51 AM 71.1 °F 51.1 °F 49% 30.12 in 10.0 mi WNW 8.1 mph - N/A   Partly Cloudy
11:51 AM 72.0 °F 52.0 °F 49% 30.13 in 10.0 mi West 6.9 mph - N/A   Scattered Clouds
12:51 PM 73.0 °F 52.0 °F 48% 30.13 in 10.0 mi West 13.8 mph - N/A   Scattered Clouds
1:51 PM 75.0 °F 51.1 °F 43% 30.13 in 10.0 mi West 15.0 mph - N/A   Scattered Clouds
2:51 PM 75.0 °F 52.0 °F 44% 30.13 in 10.0 mi West 9.2 mph - N/A   Scattered Clouds
3:51 PM 75.9 °F 53.1 °F 45% 30.13 in 10.0 mi West 15.0 mph 19.6 mph N/A   Scattered Clouds
4:51 PM 75.9 °F 54.0 °F 46% 30.13 in 10.0 mi WNW 11.5 mph - N/A   Overcast
5:51 PM 73.9 °F 53.1 °F 48% 30.14 in 10.0 mi WNW 9.2 mph - N/A   Mostly Cloudy
6:51 PM 73.9 °F 53.1 °F 48% 30.15 in 10.0 mi WNW 10.4 mph - N/A   Overcast
7:51 PM 73.0 °F 55.0 °F 53% 30.16 in 10.0 mi NNE 4.6 mph - N/A   Overcast
8:51 PM 71.1 °F 55.0 °F 57% 30.17 in 10.0 mi North 3.5 mph - N/A   Overcast
9:51 PM 69.1 °F 55.0 °F 61% 30.18 in 10.0 mi NE 3.5 mph - N/A   Mostly Cloudy
10:51 PM 66.9 °F 55.9 °F 68% 30.19 in 10.0 mi Calm Calm - N/A   Partly Cloudy
11:51 PM 64.0 °F 57.0 °F 78% 30.19 in 10.0 mi Calm Calm - N/A   Partly Cloudy